Weather History for Russell, KS

Change the Weather History Date:

Sunday, February 3, 2013

  Actual Average Record
Temperature  
Mean Temperature 40 °F -  
Max Temperature 53 °F 39 °F 72 °F (1962)
Min Temperature 26 °F 17 °F -16 °F (1989)
Degree Days  
Heating Degree Days 26    
Moisture  
Dew Point 26 °F    
Average Humidity 59    
Maximum Humidity 82    
Minimum Humidity 37    
Precipitation  
Precipitation 0.00 in - - ()
Sea Level Pressure  
Sea Level Pressure 30.09 in    
Wind  
Wind Speed 10 mph (SSW)    
Max Wind Speed 20 mph    
Max Gust Speed 25 mph    
Visibility 10 miles    
Events      
Averages and records for this station are not official NWS values.
T = Trace of Precipitation, MM = Missing Value Source: NWS Daily Summary

Daily Weather History Graph

Daily Weather History Graph

Search for Another Location

Airport:

Trip Planner

Search our weather history database for the weather conditions in past years. The results will help you decide how hot, cold, wet, or windy it might be!

Date:

Astronomy

Feb. 03, 2013 Rise Set
Actual Time 7:39 AM CST 5:59 PM CST
Civil Twilight 7:11 AM CST 6:27 PM CST
Nautical Twilight 6:39 AM CST 6:59 PM CST
Astronomical Twilight 6:08 AM CST 7:30 PM CST
Moon 1:08 AM CST (2/3) 11:38 AM CST (2/3)
Length of Visible Light 11h 16m
Length of Day
10h 20m
Waning Gibbous, 48% of the Moon is Illuminated
Feb 3
Waning Gibbous
Feb 10
New
Feb 17
First Quarter
Feb 25
Full
Mar 4
Last Quarter

Hourly Weather History & Observations

Time (CST) Temp. Windchill Dew Point Humidity Pressure Visibility Wind Dir Wind Speed Gust Speed Precip Events Conditions
12:53 AM 36.0 °F 28.5 °F 24.1 °F 62% 30.30 in 10.0 mi NW 10.4 mph - N/A   Clear
1:53 AM 35.6 °F 28.6 °F 23.0 °F 60% 30.27 in 10.0 mi WNW 9.2 mph - N/A   Clear
2:53 AM 30.9 °F 22.8 °F 23.0 °F 72% 30.29 in 10.0 mi NW 9.2 mph - N/A   Clear
3:53 AM 32.0 °F 23.6 °F 23.0 °F 69% 30.27 in 10.0 mi NNW 10.4 mph - N/A   Clear
4:53 AM 32.0 °F 24.2 °F 23.0 °F 69% 30.25 in 10.0 mi North 9.2 mph - N/A   Clear
5:53 AM 26.1 °F 18.4 °F 21.0 °F 81% 30.29 in 10.0 mi SSW 6.9 mph - N/A   Clear
6:53 AM 28.9 °F 25.2 °F 21.9 °F 75% 30.29 in 10.0 mi SW 3.5 mph - N/A   Clear
7:53 AM 27.0 °F 21.6 °F 21.9 °F 81% 30.28 in 10.0 mi SSW 4.6 mph - N/A   Clear
8:53 AM 30.0 °F - 25.0 °F 82% 30.28 in 10.0 mi Calm Calm - N/A   Clear
9:53 AM 37.0 °F 33.3 °F 26.1 °F 65% 30.24 in 10.0 mi South 4.6 mph - N/A   Clear
10:53 AM 42.1 °F 35.7 °F 27.0 °F 55% 30.21 in 10.0 mi SSE 11.5 mph - N/A   Clear
11:53 AM 45.0 °F 37.9 °F 28.0 °F 52% 30.17 in 10.0 mi SSE 16.1 mph - N/A   Clear
12:53 PM 48.0 °F - 27.0 °F 44% 30.12 in 10.0 mi South 17.3 mph 25.3 mph N/A   Clear
1:53 PM 50.0 °F - 27.0 °F 41% 30.06 in 10.0 mi South 17.3 mph 23.0 mph N/A   Clear
2:53 PM 52.0 °F - 27.0 °F 38% 30.00 in 10.0 mi South 19.6 mph - N/A   Clear
3:53 PM 53.1 °F - 27.0 °F 37% 29.96 in 10.0 mi South 16.1 mph 25.3 mph N/A   Clear
4:53 PM 53.1 °F - 28.0 °F 38% 29.93 in 10.0 mi South 16.1 mph - N/A   Clear
5:53 PM 46.9 °F - 28.9 °F 50% 29.91 in 10.0 mi SSE 12.7 mph - N/A   Clear
6:53 PM 46.0 °F 40.6 °F 28.9 °F 51% 29.90 in 10.0 mi South 11.5 mph - N/A   Clear
7:53 PM 45.0 °F 40.1 °F 28.9 °F 53% 29.87 in 10.0 mi South 9.2 mph - N/A   Clear
8:53 PM 45.0 °F 38.5 °F 28.9 °F 53% 29.85 in 10.0 mi SSW 13.8 mph - N/A   Clear
9:53 PM 43.0 °F 37.7 °F 28.9 °F 58% 29.84 in 10.0 mi South 9.2 mph - N/A   Clear
10:53 PM 39.9 °F 34.5 °F 30.0 °F 68% 29.84 in 10.0 mi SW 8.1 mph - N/A   Clear
11:53 PM 37.9 °F 32.7 °F 30.0 °F 73% 29.83 in 10.0 mi SW 6.9 mph - N/A   Clear